Location: Brno
(49.2000°N, 16.6333°E)
Time: 00:44:45
(UTC+01:00)

ISS - Pass Details

Date: 26 January 2019
Orbit: 403 x 411 km, 51.6° (Epoch: 20 February)

Event Time Altitude Azimuth Distance (km) Brightness Sun altitude
Rises 17:36:38 0° 222° (SW) 2,323 1.2 -9.4°
Reaches altitude 10° 17:38:49 10° 212° (SSW) 1,468 -0.2 -9.7°
Maximum altitude 17:41:49 33° 147° (SSE) 711 -2.8 -10.2°
Enters shadow 17:44:02 16° 88° (E) 1,187 -2.1 -10.5°
